ANZ426 NZMF-NZQN

Flight info

Callsign ANZ426
Flight time 1h 7m
Altitude 13000
Route 443928S1675410E 443720S1675240E DCT DPONT DCT YPONT DCT MABA1 DCT UBDAM
Aircraft DH8D/M-SDE2E3FGRY/H

Departure

Time 2026-04-26 08:07
Airport Milford Sound Airport (NZMF)

Arrival

Time 2026-04-26 09:14
Airport Queenstown Airport (NZQN)
Time Latitude Longitude Altitude Speed Heading
2026-04-26 07:34 -44.67277 167.92395 18 ft 0 kts 147°
2026-04-26 08:01 -44.67276 167.92395 18 ft 0 kts 147°
2026-04-26 08:01 -44.67280 167.92397 18 ft 2 kts 155°
2026-04-26 08:01 -44.67311 167.92396 18 ft 7 kts 188°
2026-04-26 08:02 -44.67381 167.92398 18 ft 13 kts 155°
2026-04-26 08:02 -44.67448 167.92513 18 ft 16 kts 124°
2026-04-26 08:02 -44.67501 167.92622 18 ft 11 kts 122°
2026-04-26 08:02 -44.67531 167.92694 18 ft 6 kts 115°
2026-04-26 08:03 -44.67539 167.92715 18 ft 1 kts 138°
2026-04-26 08:03 -44.67553 167.92721 18 ft 3 kts 202°
2026-04-26 08:03 -44.67552 167.92709 18 ft 1 kts 296°
2026-04-26 08:06 -44.67549 167.92700 18 ft 13 kts 297°
2026-04-26 08:07 -44.67348 167.92290 18 ft 83 kts 300°
2026-04-26 08:07 -44.66864 167.91479 126 ft 116 kts 315°
2026-04-26 08:07 -44.66150 167.90842 666 ft 117 kts 322°
2026-04-26 08:07 -44.65361 167.90229 1041 ft 130 kts 325°
2026-04-26 08:08 -44.64620 167.89631 1824 ft 106 kts 321°
2026-04-26 08:08 -44.63924 167.88952 2077 ft 133 kts 315°
2026-04-26 08:08 -44.63274 167.87955 2557 ft 141 kts 302°
2026-04-26 08:08 -44.62620 167.86816 2993 ft 155 kts 300°
2026-04-26 08:09 -44.62007 167.85565 3661 ft 156 kts 299°
2026-04-26 08:09 -44.61379 167.84300 4222 ft 165 kts 298°
2026-04-26 08:09 -44.60567 167.83030 4671 ft 185 kts 318°
2026-04-26 08:09 -44.59347 167.82293 5273 ft 195 kts 339°
2026-04-26 08:10 -44.57984 167.81982 5897 ft 201 kts 347°
2026-04-26 08:10 -44.56544 167.81814 6381 ft 209 kts 349°
2026-04-26 08:10 -44.55062 167.81695 6899 ft 215 kts 351°
2026-04-26 08:10 -44.53559 167.81629 7638 ft 210 kts 352°
2026-04-26 08:11 -44.52045 167.81603 8260 ft 211 kts 352°
2026-04-26 08:11 -44.50508 167.81876 8798 ft 222 kts 12°
2026-04-26 08:11 -44.49112 167.82951 9350 ft 227 kts 32°
2026-04-26 08:11 -44.47897 167.84465 9846 ft 232 kts 40°
2026-04-26 08:12 -44.46725 167.86140 10297 ft 235 kts 41°
2026-04-26 08:12 -44.45567 167.87860 10754 ft 239 kts 42°
2026-04-26 08:12 -44.44436 167.89572 11244 ft 240 kts 43°
2026-04-26 08:12 -44.43266 167.91368 11652 ft 247 kts 43°
2026-04-26 08:13 -44.42120 167.93136 12054 ft 251 kts 43°
2026-04-26 08:13 -44.40916 167.94989 12526 ft 253 kts 42°
2026-04-26 08:13 -44.39709 167.96888 12834 ft 267 kts 48°
2026-04-26 08:13 -44.38865 167.99272 12964 ft 287 kts 74°
2026-04-26 08:14 -44.38732 168.02104 12996 ft 298 kts 103°
2026-04-26 08:14 -44.39364 168.04831 13031 ft 305 kts 123°
2026-04-26 08:14 -44.40610 168.07232 13020 ft 312 kts 138°
2026-04-26 08:14 -44.42169 168.09426 13010 ft 324 kts 142°
2026-04-26 08:15 -44.43789 168.11637 13003 ft 336 kts 141°
2026-04-26 08:15 -44.45488 168.13979 12999 ft 346 kts 141°
2026-04-26 08:15 -44.47189 168.16338 12997 ft 353 kts 141°
2026-04-26 08:15 -44.48931 168.18765 12995 ft 358 kts 140°
2026-04-26 08:16 -44.50671 168.21206 12972 ft 342 kts 141°
2026-04-26 08:16 -44.52313 168.23540 12981 ft 325 kts 141°
2026-04-26 08:16 -44.53885 168.25787 12984 ft 310 kts 141°
2026-04-26 08:16 -44.55331 168.27853 12986 ft 297 kts 141°
2026-04-26 08:17 -44.56777 168.29914 12986 ft 286 kts 142°
2026-04-26 08:17 -44.58169 168.31890 12986 ft 275 kts 142°
2026-04-26 08:17 -44.59506 168.33782 12986 ft 266 kts 143°
2026-04-26 08:17 -44.60776 168.35574 12988 ft 258 kts 143°
2026-04-26 08:18 -44.62033 168.37344 12986 ft 250 kts 143°
2026-04-26 08:18 -44.63272 168.39074 12899 ft 249 kts 144°
2026-04-26 08:18 -44.64520 168.40793 12651 ft 253 kts 144°
2026-04-26 08:18 -44.65798 168.42528 12403 ft 256 kts 144°
2026-04-26 08:19 -44.67229 168.43789 12158 ft 244 kts 169°
2026-04-26 08:19 -44.68833 168.43975 11908 ft 230 kts 196°
2026-04-26 08:19 -44.70230 168.43083 11650 ft 218 kts 222°
2026-04-26 08:19 -44.71105 168.41335 11406 ft 219 kts 253°
2026-04-26 08:20 -44.71168 168.39171 11163 ft 229 kts 279°
2026-04-26 08:20 -44.70410 168.37163 10938 ft 244 kts 305°
2026-04-26 08:20 -44.68982 168.35821 10646 ft 260 kts 335°
2026-04-26 08:20 -44.67176 168.35512 10414 ft 276 kts
2026-04-26 08:21 -44.65333 168.36300 10163 ft 289 kts 24°
2026-04-26 08:21 -44.63786 168.38221 9924 ft 296 kts 52°
2026-04-26 08:21 -44.62962 168.40734 9723 ft 296 kts 76°
2026-04-26 08:21 -44.62887 168.43589 9428 ft 290 kts 102°
2026-04-26 08:22 -44.63595 168.46071 9562 ft 268 kts 127°
2026-04-26 08:22 -44.64780 168.47994 9740 ft 245 kts 143°
2026-04-26 08:22 -44.66019 168.49563 9983 ft 230 kts 143°
2026-04-26 08:22 -44.67237 168.51095 10204 ft 224 kts 146°
2026-04-26 08:23 -44.68448 168.52629 10420 ft 216 kts 146°
2026-04-26 08:23 -44.69580 168.54074 10611 ft 211 kts 145°
2026-04-26 08:23 -44.70682 168.55483 10777 ft 214 kts 145°
2026-04-26 08:23 -44.71861 168.56978 10790 ft 231 kts 148°
2026-04-26 08:24 -44.73129 168.58561 10779 ft 248 kts 146°
2026-04-26 08:24 -44.74454 168.60203 10721 ft 260 kts 144°
2026-04-26 08:24 -44.75840 168.61912 10745 ft 272 kts 145°
2026-04-26 08:24 -44.77281 168.63715 10716 ft 284 kts 144°
2026-04-26 08:25 -44.78744 168.65538 10733 ft 291 kts 144°
2026-04-26 08:25 -44.80226 168.67378 10734 ft 298 kts 141°
2026-04-26 08:25 -44.81776 168.69326 10668 ft 304 kts 141°
2026-04-26 08:25 -44.83361 168.71316 10601 ft 309 kts 143°
2026-04-26 08:26 -44.84966 168.73354 10525 ft 311 kts 143°
2026-04-26 08:26 -44.86518 168.75340 10453 ft 312 kts 142°
2026-04-26 08:26 -44.88063 168.77408 10380 ft 316 kts 137°
2026-04-26 08:26 -44.89257 168.79989 10304 ft 325 kts 116°
2026-04-26 08:27 -44.89778 168.83141 10231 ft 333 kts 96°
2026-04-26 08:27 -44.89687 168.86368 10155 ft 334 kts 83°
2026-04-26 08:27 -44.89253 168.89530 10068 ft 332 kts 77°
2026-04-26 08:27 -44.88708 168.92643 10020 ft 329 kts 76°
2026-04-26 08:28 -44.88137 168.95740 10001 ft 321 kts 75°
2026-04-26 08:28 -44.87593 168.98664 9995 ft 313 kts 75°
2026-04-26 08:28 -44.87059 169.01575 9992 ft 307 kts 76°
2026-04-26 08:28 -44.86541 169.04468 9991 ft 301 kts 76°
2026-04-26 08:29 -44.86044 169.07290 9991 ft 296 kts 76°
2026-04-26 08:29 -44.85554 169.10111 9991 ft 292 kts 76°
2026-04-26 08:29 -44.85070 169.12896 9991 ft 288 kts 76°
2026-04-26 08:29 -44.84600 169.15601 9991 ft 284 kts 76°
2026-04-26 08:30 -44.84139 169.18251 9991 ft 281 kts 76°
2026-04-26 08:30 -44.83685 169.20847 9991 ft 279 kts 76°
2026-04-26 08:30 -44.83225 169.23453 9991 ft 276 kts 75°
2026-04-26 08:30 -44.82343 169.25797 9989 ft 271 kts 45°
2026-04-26 08:31 -44.80837 169.27242 9990 ft 259 kts 13°
2026-04-26 08:31 -44.79115 169.27468 9991 ft 243 kts 342°
2026-04-26 08:31 -44.77652 169.26492 9995 ft 226 kts 311°
2026-04-26 08:31 -44.76819 169.24647 9961 ft 214 kts 282°
2026-04-26 08:32 -44.76845 169.22556 9962 ft 210 kts 248°
2026-04-26 08:32 -44.77690 169.20962 10003 ft 213 kts 217°
2026-04-26 08:32 -44.79002 169.20098 10019 ft 215 kts 201°
2026-04-26 08:32 -44.80326 169.19411 9980 ft 213 kts 209°
2026-04-26 08:33 -44.81575 169.18412 10002 ft 210 kts 213°
2026-04-26 08:33 -44.82754 169.17260 9941 ft 210 kts 226°
2026-04-26 08:33 -44.83698 169.15619 9817 ft 215 kts 238°
2026-04-26 08:33 -44.84485 169.13788 9721 ft 218 kts 237°
2026-04-26 08:34 -44.85374 169.12086 9611 ft 224 kts 232°
2026-04-26 08:34 -44.86414 169.10441 9288 ft 232 kts 226°
2026-04-26 08:34 -44.87633 169.08971 8963 ft 239 kts 219°
2026-04-26 08:34 -44.89050 169.07749 8617 ft 247 kts 210°
2026-04-26 08:35 -44.90634 169.06897 8226 ft 258 kts 200°
2026-04-26 08:35 -44.92433 169.06465 7832 ft 266 kts 186°
2026-04-26 08:35 -44.94283 169.06510 7426 ft 260 kts 180°
2026-04-26 08:35 -44.96064 169.06691 6954 ft 248 kts 180°
2026-04-26 08:36 -44.97718 169.06852 6459 ft 238 kts 182°
2026-04-26 08:36 -44.99294 169.06719 5963 ft 226 kts 195°
2026-04-26 08:36 -45.00709 169.06037 5471 ft 215 kts 211°
2026-04-26 08:36 -45.01873 169.04882 5184 ft 195 kts 225°
2026-04-26 08:37 -45.02692 169.03530 5091 ft 171 kts 238°
2026-04-26 08:37 -45.03248 169.02031 5091 ft 170 kts 249°
2026-04-26 08:37 -45.03473 169.00965 5075 ft 171 kts 257°
2026-04-26 08:37 -45.03616 168.99256 4885 ft 183 kts 267°
2026-04-26 08:38 -45.03494 168.97396 4642 ft 196 kts 279°
2026-04-26 08:38 -45.03012 168.95572 4448 ft 205 kts 293°
2026-04-26 08:38 -45.02324 168.93806 4370 ft 206 kts 296°
2026-04-26 08:38 -45.01616 168.92106 4442 ft 198 kts 297°
2026-04-26 08:39 -45.00837 168.90555 4519 ft 193 kts 301°
2026-04-26 08:39 -45.00191 168.88905 4568 ft 188 kts 288°
2026-04-26 08:39 -44.99897 168.87107 4368 ft 194 kts 271°
2026-04-26 08:39 -44.99985 168.85155 4047 ft 206 kts 259°
2026-04-26 08:40 -45.00254 168.83171 4039 ft 201 kts 258°
2026-04-26 08:40 -45.00576 168.81206 3571 ft 217 kts 253°
2026-04-26 08:40 -45.01150 168.79118 2373 ft 237 kts 251°
2026-04-26 08:40 -45.01519 168.76934 1602 ft 223 kts 247°
2026-04-26 08:41 -45.01816 168.74860 1251 ft 201 kts 245°
2026-04-26 08:41 -45.02192 168.73106 1591 ft 178 kts 250°
2026-04-26 08:41 -45.02617 168.71587 2073 ft 165 kts 243°
2026-04-26 08:41 -45.03319 168.70271 2270 ft 173 kts 228°
2026-04-26 08:42 -45.04088 168.69076 2642 ft 170 kts 225°
2026-04-26 08:42 -45.05098 168.68185 2774 ft 183 kts 202°
2026-04-26 08:42 -45.06352 168.67936 3155 ft 184 kts 181°
2026-04-26 08:42 -45.07643 168.68410 3460 ft 196 kts 156°
2026-04-26 08:43 -45.08708 168.69633 3913 ft 202 kts 130°
2026-04-26 08:43 -45.09571 168.71239 4330 ft 203 kts 132°
2026-04-26 08:43 -45.10555 168.72611 4769 ft 200 kts 144°
2026-04-26 08:43 -45.11765 168.73694 5205 ft 198 kts 158°
2026-04-26 08:44 -45.13077 168.74364 5634 ft 195 kts 170°
2026-04-26 08:44 -45.14407 168.74625 6052 ft 191 kts 182°
2026-04-26 08:44 -45.15740 168.74579 6462 ft 191 kts 187°
2026-04-26 08:44 -45.17083 168.74452 6820 ft 193 kts 188°
2026-04-26 08:45 -45.18714 168.74282 7344 ft 192 kts 188°
2026-04-26 08:45 -45.19826 168.74165 7677 ft 193 kts 189°
2026-04-26 08:45 -45.21217 168.74019 8082 ft 194 kts 189°
2026-04-26 08:45 -45.22603 168.73879 8471 ft 195 kts 189°
2026-04-26 08:46 -45.23970 168.73742 8828 ft 196 kts 189°
2026-04-26 08:46 -45.25417 168.73625 9196 ft 202 kts 183°
2026-04-26 08:46 -45.26785 168.74326 9536 ft 217 kts 149°
2026-04-26 08:46 -45.27922 168.75924 9898 ft 224 kts 137°
2026-04-26 08:47 -45.28956 168.77728 10282 ft 224 kts 137°
2026-04-26 08:47 -45.30005 168.79578 10631 ft 227 kts 134°
2026-04-26 08:47 -45.31002 168.81374 11009 ft 228 kts 133°
2026-04-26 08:47 -45.31979 168.83144 11345 ft 231 kts 135°
2026-04-26 08:48 -45.32969 168.84977 11684 ft 233 kts 135°
2026-04-26 08:48 -45.33920 168.86778 12021 ft 234 kts 135°
2026-04-26 08:48 -45.34881 168.88635 12355 ft 236 kts 135°
2026-04-26 08:48 -45.35852 168.90534 12699 ft 238 kts 135°
2026-04-26 08:49 -45.36863 168.92515 12924 ft 247 kts 135°
2026-04-26 08:49 -45.37905 168.94537 12990 ft 262 kts 135°
2026-04-26 08:49 -45.38908 168.96821 13011 ft 288 kts 118°
2026-04-26 08:49 -45.39198 168.99799 13019 ft 314 kts 87°
2026-04-26 08:50 -45.38558 169.02740 13021 ft 328 kts 59°
2026-04-26 08:50 -45.37099 169.05253 13024 ft 334 kts 38°
2026-04-26 08:50 -45.35295 169.07400 13021 ft 342 kts 34°
2026-04-26 08:50 -45.33445 169.09521 13004 ft 351 kts 34°
2026-04-26 08:51 -45.29628 169.13951 12994 ft 364 kts 35°
2026-04-26 08:51 -45.27645 169.16247 12993 ft 369 kts 35°
2026-04-26 08:51 -45.25633 169.18569 12992 ft 374 kts 35°
2026-04-26 08:52 -45.23567 169.20941 12992 ft 378 kts 35°
2026-04-26 08:52 -45.21507 169.23298 12991 ft 383 kts 35°
2026-04-26 08:52 -45.19456 169.25639 12991 ft 386 kts 35°
2026-04-26 08:52 -45.17360 169.28027 12990 ft 389 kts 35°
2026-04-26 08:53 -45.15224 169.30456 12985 ft 389 kts 35°
2026-04-26 08:53 -45.13117 169.32860 12971 ft 366 kts 35°
2026-04-26 08:53 -45.11192 169.35049 12984 ft 350 kts 34°
2026-04-26 08:53 -45.09321 169.37182 12986 ft 343 kts 34°
2026-04-26 08:54 -45.07494 169.39275 12986 ft 337 kts 34°
2026-04-26 08:54 -45.05682 169.41355 12986 ft 332 kts 34°
2026-04-26 08:54 -45.03905 169.43399 12986 ft 328 kts 34°
2026-04-26 08:54 -45.02161 169.45408 12986 ft 324 kts 34°
2026-04-26 08:55 -45.00444 169.47386 12986 ft 320 kts 34°
2026-04-26 08:55 -44.98730 169.49361 12986 ft 317 kts 34°
2026-04-26 08:55 -44.97036 169.51313 12986 ft 314 kts 34°
2026-04-26 08:55 -44.95374 169.53177 12985 ft 309 kts 29°
2026-04-26 08:56 -44.93473 169.54440 12988 ft 297 kts
2026-04-26 08:56 -44.91515 169.55106 12987 ft 293 kts
2026-04-26 08:56 -44.89541 169.55694 12987 ft 292 kts
2026-04-26 08:56 -44.87598 169.56286 12987 ft 291 kts
2026-04-26 08:57 -44.85671 169.56863 12986 ft 286 kts
2026-04-26 08:57 -44.83768 169.56700 12987 ft 266 kts 334°
2026-04-26 08:57 -44.82081 169.55731 12986 ft 258 kts 324°
2026-04-26 08:57 -44.80460 169.54607 12986 ft 256 kts 324°
2026-04-26 08:58 -44.78858 169.53513 12986 ft 254 kts 324°
2026-04-26 08:58 -44.77369 169.52471 12985 ft 246 kts 319°
2026-04-26 08:58 -44.76128 169.50950 12988 ft 231 kts 300°
2026-04-26 08:58 -44.75230 169.49150 12987 ft 227 kts 294°
2026-04-26 08:59 -44.74579 169.47239 12984 ft 212 kts 273°
2026-04-26 08:59 -44.74738 169.45271 12989 ft 203 kts 246°
2026-04-26 08:59 -44.75392 169.43563 12988 ft 202 kts 238°
2026-04-26 08:59 -44.76116 169.41872 12874 ft 206 kts 239°
2026-04-26 09:00 -44.76817 169.40161 12661 ft 214 kts 240°
2026-04-26 09:00 -44.77558 169.38308 12439 ft 220 kts 240°
2026-04-26 09:00 -44.78308 169.36416 12217 ft 226 kts 240°
2026-04-26 09:00 -44.79050 169.34559 12004 ft 230 kts 240°
2026-04-26 09:01 -44.79840 169.32624 11785 ft 234 kts 239°
2026-04-26 09:01 -44.80634 169.30705 11569 ft 238 kts 239°
2026-04-26 09:01 -44.81472 169.28692 11342 ft 241 kts 239°
2026-04-26 09:01 -44.82318 169.26667 10982 ft 241 kts 240°
2026-04-26 09:02 -44.83126 169.24753 10611 ft 227 kts 240°
2026-04-26 09:02 -44.83916 169.22903 10230 ft 215 kts 240°
2026-04-26 09:02 -44.84655 169.21234 9876 ft 207 kts 240°
2026-04-26 09:02 -44.85381 169.19611 9472 ft 197 kts 239°
2026-04-26 09:03 -44.86087 169.18025 9144 ft 191 kts 238°
2026-04-26 09:03 -44.86764 169.16475 8742 ft 183 kts 238°
2026-04-26 09:03 -44.87338 169.15037 8627 ft 162 kts 250°
2026-04-26 09:03 -44.87616 169.13580 8342 ft 151 kts 261°
2026-04-26 09:04 -44.87532 169.12072 7524 ft 178 kts 286°
2026-04-26 09:04 -44.86896 169.10564 6846 ft 184 kts 316°
2026-04-26 09:04 -44.85774 169.09833 6437 ft 177 kts 354°
2026-04-26 09:04 -44.84534 169.10147 5787 ft 183 kts 11°
2026-04-26 09:05 -44.83358 169.09923 5546 ft 157 kts 317°
2026-04-26 09:05 -44.83006 169.08309 5480 ft 172 kts 245°
2026-04-26 09:05 -44.83815 169.07135 6120 ft 157 kts 212°
2026-04-26 09:05 -44.84273 169.06481 5240 ft 148 kts 259°
2026-04-26 09:06 -44.84914 169.04667 3277 ft 250 kts 223°
2026-04-26 09:06 -44.86171 169.03908 5005 ft 176 kts 166°
2026-04-26 09:06 -44.87288 169.04912 4845 ft 181 kts 154°
2026-04-26 09:06 -44.88034 169.05332 5315 ft 148 kts 171°
2026-04-26 09:07 -44.89175 169.05561 5339 ft 171 kts 174°
2026-04-26 09:07 -44.90463 169.05767 5638 ft 179 kts 171°
2026-04-26 09:07 -44.91570 169.06350 6604 ft 157 kts 145°
2026-04-26 09:07 -44.92309 169.07769 6674 ft 199 kts 118°
2026-04-26 09:08 -44.93434 169.08911 6592 ft 205 kts 176°
2026-04-26 09:08 -44.94765 169.09069 7859 ft 144 kts 180°
2026-04-26 09:08 -44.95782 169.09144 8763 ft 132 kts 195°
2026-04-26 09:08 -44.96762 169.08456 8347 ft 189 kts 216°
2026-04-26 09:09 -44.98076 169.07952 8995 ft 173 kts 182°
2026-04-26 09:09 -44.99099 169.07923 10024 ft 119 kts 206°
2026-04-26 09:09 -45.00029 169.07467 9763 ft 162 kts 200°
2026-04-26 09:09 -45.01105 169.06910 9923 ft 162 kts 208°
2026-04-26 09:10 -45.02185 169.06170 10051 ft 169 kts 209°
2026-04-26 09:10 -45.03094 169.05189 10473 ft 142 kts 248°
2026-04-26 09:10 -45.03133 169.03746 10801 ft 146 kts 273°
2026-04-26 09:10 -45.02778 169.02319 10841 ft 165 kts 282°
2026-04-26 09:11 -45.02596 169.00533 10434 ft 196 kts 272°
2026-04-26 09:11 -45.02123 168.98679 10787 ft 198 kts 289°
2026-04-26 09:11 -45.01499 168.96871 10274 ft 211 kts 290°
2026-04-26 09:11 -45.00846 168.94462 8052 ft 286 kts 282°
2026-04-26 09:12 -45.00474 168.91586 6235 ft 299 kts 277°
2026-04-26 09:12 -45.00132 168.88658 4846 ft 283 kts 263°
2026-04-26 09:12 -45.00422 168.85933 3790 ft 248 kts 254°
2026-04-26 09:12 -45.00657 168.84049 3958 ft 157 kts 250°
2026-04-26 09:13 -45.00856 168.82400 2818 ft 176 kts 257°
2026-04-26 09:13 -45.01019 168.80647 2126 ft 173 kts 256°
2026-04-26 09:13 -45.01187 168.78944 1565 ft 166 kts 254°
2026-04-26 09:13 -45.01402 168.77392 1316 ft 148 kts 255°
2026-04-26 09:14 -45.01621 168.75994 1189 ft 146 kts 256°
2026-04-26 09:14 -45.01812 168.74798 1163 ft 96 kts 256°
2026-04-26 09:14 -45.01910 168.74176 1163 ft 25 kts 245°
2026-04-26 09:14 -45.01929 168.74131 1163 ft 0 kts 229°
2026-04-26 09:15 -45.01932 168.74127 1163 ft 3 kts 229°
2026-04-26 09:15 -45.01956 168.74101 1163 ft 9 kts 207°
2026-04-26 09:15 -45.02001 168.74074 1163 ft 6 kts 199°
2026-04-26 09:15 -45.02067 168.74072 1163 ft 10 kts 164°
2026-04-26 09:16 -45.02127 168.74068 1163 ft 5 kts 204°
2026-04-26 09:16 -45.02147 168.74055 1163 ft 0 kts 205°